Dyersburg, TN

6:34 AM CST on December 08, 2016 (GMT -0600)
Dyersburg Municipal

Weather History for KDYR - November, 2013

Change the Weather History Date:

Wednesday, November 13, 2013

  Actual Average Record
Temperature  
Mean Temperature 37 °F -  
Max Temperature 46 °F 56 °F 75 °F (1999)
Min Temperature 28 °F 40 °F 24 °F (2014)
Degree Days  
Heating Degree Days 28    
Moisture  
Dew Point 17 °F    
Average Humidity 49    
Maximum Humidity 64    
Minimum Humidity 31    
Precipitation  
Precipitation 0.00 in - - ()
Sea Level Pressure  
Sea Level Pressure 30.51 in    
Wind  
Wind Speed 1 mph (SSE)    
Max Wind Speed 4 mph    
Max Gust Speed -    
Visibility 10 miles    
Events      
Averages and records for this station are not official NWS values.
T = Trace of Precipitation, MM = Missing Value Source: NWS Daily Summary

Daily Weather History Graph

Daily Weather History Graph

Search for Another Location

Airport or City:

Trip Planner

Search our weather history database for the weather conditions in past years. The results will help you decide how hot, cold, wet, or windy it might be!

Date:

Astronomy

Nov. 13, 2013 Rise Set
Actual Time 6:32 AM CST 4:51 PM CST
Civil Twilight 6:05 AM CST 5:18 PM CST
Nautical Twilight 5:34 AM CST 5:49 PM CST
Astronomical Twilight 5:03 AM CST 6:19 PM CST
Moon 2:32 PM CST (11/13) 2:32 AM CST (11/13)
Length of Visible Light 11h 13m
Length of Day
10h 18m
Waxing Gibbous, 85% of the Moon is Illuminated
Nov 13
Waxing Gibbous
Nov 17
Full
Nov 25
Last Quarter
Dec 2
New
Dec 9
First Quarter

Hourly Weather History & Observations

Time (CST) Temp. Windchill Dew Point Humidity Pressure Visibility Wind Dir Wind Speed Gust Speed Precip Events Conditions
2:35 PM 44.6 °F - 17.6 °F 34% 30.56 in 10.0 mi Calm Calm - N/A   Unknown
2:55 PM 46.4 °F - 17.6 °F 32% 30.56 in 10.0 mi Calm Calm - N/A   Clear
3:15 PM 46.4 °F 45.2 °F 17.6 °F 32% 30.55 in 10.0 mi ESE 3.5 mph - N/A   Clear
3:35 PM 44.6 °F 43.1 °F 17.6 °F 34% 30.54 in 10.0 mi ESE 3.5 mph - N/A   Clear
3:55 PM 46.4 °F 45.2 °F 17.6 °F 32% 30.54 in 10.0 mi South 3.5 mph - N/A   Clear
4:15 PM 44.6 °F 43.1 °F 15.8 °F 31% 30.53 in 10.0 mi SE 3.5 mph - N/A   Clear
4:35 PM 44.6 °F - 17.6 °F 34% 30.53 in 10.0 mi Calm Calm - N/A   Clear
4:55 PM 42.8 °F - 17.6 °F 36% 30.53 in 10.0 mi Calm Calm - N/A   Clear
5:15 PM 41.0 °F - 17.6 °F 39% 30.53 in 10.0 mi Calm Calm - N/A   Clear
5:35 PM 37.4 °F - 15.8 °F 41% 30.52 in 10.0 mi Calm Calm - N/A   Clear
5:55 PM 37.4 °F - 15.8 °F 41% 30.52 in 10.0 mi Calm Calm - N/A   Clear
6:15 PM 35.6 °F - 15.8 °F 44% 30.51 in 10.0 mi Calm Calm - N/A   Clear
6:35 PM 35.6 °F - 17.6 °F 48% 30.51 in 10.0 mi Calm Calm - N/A   Clear
6:55 PM 33.8 °F - 17.6 °F 52% 30.51 in 10.0 mi Calm Calm - N/A   Clear
7:15 PM 33.8 °F - 17.6 °F 52% 30.51 in 10.0 mi Calm Calm - N/A   Clear
7:35 PM 33.8 °F - 17.6 °F 52% 30.51 in 10.0 mi Calm Calm - N/A   Clear
7:55 PM 32.0 °F - 17.6 °F 55% 30.51 in 10.0 mi Calm Calm - N/A   Clear
8:15 PM 30.2 °F - 17.6 °F 60% 30.50 in 10.0 mi Calm Calm - N/A   Clear
8:35 PM 30.2 °F - 17.6 °F 60% 30.50 in 10.0 mi Calm Calm - N/A   Clear
8:55 PM 30.2 °F - 17.6 °F 60% 30.49 in 10.0 mi Calm Calm - N/A   Clear
9:15 PM 30.2 °F - 15.8 °F 55% 30.48 in 10.0 mi Calm Calm - N/A   Clear
9:35 PM 30.2 °F - 17.6 °F 60% 30.48 in 10.0 mi Calm Calm - N/A   Clear
9:55 PM 28.4 °F - 17.6 °F 64% 30.47 in 10.0 mi Calm Calm - N/A   Clear
10:15 PM 28.4 °F - 17.6 °F 64% 30.47 in 10.0 mi Calm Calm - N/A   Clear
10:35 PM 28.4 °F - 17.6 °F 64% 30.47 in 10.0 mi Calm Calm - N/A   Clear
10:55 PM 28.4 °F 24.6 °F 17.6 °F 64% 30.47 in 10.0 mi South 3.5 mph - N/A   Clear
11:15 PM 30.2 °F 26.7 °F 17.6 °F 60% 30.47 in 10.0 mi South 3.5 mph - N/A   Clear
11:35 PM 30.2 °F - 15.8 °F 55% 30.46 in 10.0 mi Calm Calm - N/A   Clear
11:55 PM 30.2 °F - 15.8 °F 55% 30.46 in 10.0 mi Calm Calm - N/A   Clear